Location: Marcé
(47.5801°N, 0.3280°W)
Time: 15:42:12
(UTC+01:00)

SR - Pass Details

Date: 09 December 2021
Orbit: 582 x 872 km, 66.7° (Epoch: 22 January)

Event Time Altitude Azimuth Distance (km) Brightness Sun altitude
Rises 23:00:28 0° 206° (SSW) 2,963 - -56.5°
Reaches altitude 10° 23:02:49 10° 204° (SSW) 2,016 - -56.8°
Maximum altitude 23:07:18 68° 121° (ESE) 656 - -57.4°
Drops below altitude 10° 23:11:34 10° 39° (NE) 1,927 - -58.0°
Sets 23:13:47 0° 37° (NE) 2,819 - -58.2°
